カタログに戻る

ARIANE 5 DEB

SYLDA

運用中HEO
NORAD 41594·DEBRIS·🇫🇷 France

打ち上げ Jun 18, 2016 から Guiana Space Centre

Loading…

次のパス (今後24時間)

TLE

最新Source: Space-Track

元期: Sep 14, 2026, 05:36 UTC

1 41594U 16039D   26257.23357853  .00000936  00000-0  86044-3 0  9993
2 41594   5.9478 198.0467 5694570 217.7890  83.8614  4.39170305120479

AllMySatでARIANE 5 DEBをリアルタイム追跡

Download on the App Store